Weather History for Kenosha, WI

Change the Weather History Date:

Saturday, October 6, 2012

  Actual Average Record
Temperature  
Mean Temperature 39 °F -  
Max Temperature 48 °F 63 °F 88 °F (1963)
Min Temperature 30 °F 43 °F 27 °F (1952)
Degree Days  
Heating Degree Days 26    
Moisture  
Dew Point 26 °F    
Average Humidity 55    
Maximum Humidity 79    
Minimum Humidity 41    
Precipitation  
Precipitation 0.00 in - - ()
Sea Level Pressure  
Sea Level Pressure 30.13 in    
Wind  
Wind Speed 8 mph (WNW)    
Max Wind Speed 16 mph    
Max Gust Speed 24 mph    
Visibility 10 miles    
Events      
Averages and records for this station are not official NWS values.
T = Trace of Precipitation, MM = Missing Value Source: NWS Daily Summary

Daily Weather History Graph

Daily Weather History Graph

Search for Another Location

Airport:

Trip Planner

Search our weather history database for the weather conditions in past years. The results will help you decide how hot, cold, wet, or windy it might be!

Date:

Astronomy

Oct. 06, 2012 Rise Set
Actual Time 6:55 AM CDT 6:23 PM CDT
Civil Twilight 6:26 AM CDT 6:51 PM CDT
Nautical Twilight 5:54 AM CDT 7:24 PM CDT
Astronomical Twilight 5:21 AM CDT 7:57 PM CDT
Moon 10:33 PM CDT (10/6) 12:55 PM CDT (10/6)
Length of Visible Light 12h 24m
Length of Day
11h 28m
Waning Gibbous, 65% of the Moon is Illuminated
Oct 6
Waning Gibbous
Oct 8
Last Quarter
Oct 15
New
Oct 21
First Quarter
Oct 29
Full

Hourly Weather History & Observations

Time (CDT) Temp. Windchill Dew Point Humidity Pressure Visibility Wind Dir Wind Speed Gust Speed Precip Events Conditions
12:53 AM 36.0 °F 30.3 °F 24.1 °F 62% 30.06 in 10.0 mi WSW 6.9 mph - N/A   Clear
1:53 AM 36.0 °F 30.3 °F 24.1 °F 62% 30.06 in 10.0 mi West 6.9 mph - N/A   Clear
2:53 AM 34.0 °F 28.0 °F 24.1 °F 67% 30.06 in 10.0 mi West 6.9 mph - N/A   Clear
3:53 AM 36.0 °F 29.6 °F 25.0 °F 64% 30.06 in 10.0 mi West 8.1 mph - N/A   Mostly Cloudy
4:53 AM 32.0 °F 26.4 °F 25.0 °F 75% 30.07 in 10.0 mi West 5.8 mph - N/A   Clear
5:53 AM 30.0 °F 22.4 °F 24.1 °F 79% 30.09 in 10.0 mi WSW 8.1 mph - N/A   Clear
6:53 AM 30.9 °F 26.2 °F 25.0 °F 79% 30.10 in 10.0 mi WSW 4.6 mph - N/A   Clear
7:53 AM 35.1 °F 30.1 °F 28.0 °F 76% 30.11 in 10.0 mi WSW 5.8 mph - N/A   Clear
9:53 AM 43.0 °F 36.0 °F 26.1 °F 51% 30.13 in 10.0 mi WNW 13.8 mph 19.6 mph N/A   Overcast
10:53 AM 46.9 °F - 27.0 °F 46% 30.14 in 10.0 mi WNW 16.1 mph 24.2 mph N/A   Mostly Cloudy
11:53 AM 48.0 °F - 26.1 °F 42% 30.14 in 10.0 mi WNW 13.8 mph 23.0 mph N/A   Scattered Clouds
12:53 PM 46.0 °F 39.9 °F 26.1 °F 46% 30.15 in 10.0 mi NW 13.8 mph 23.0 mph N/A   Overcast
1:53 PM 48.0 °F - 25.0 °F 41% 30.14 in 10.0 mi NW 9.2 mph - N/A   Overcast
2:53 PM 46.9 °F - 25.0 °F 42% 30.14 in 10.0 mi NNW 10.4 mph - N/A   Overcast
3:53 PM 46.0 °F 41.0 °F 25.0 °F 44% 30.14 in 10.0 mi NW 10.4 mph - N/A   Overcast
4:53 PM 46.9 °F - 25.0 °F 42% 30.15 in 10.0 mi NW 6.9 mph - N/A   Overcast
5:53 PM 46.0 °F 41.9 °F 26.1 °F 46% 30.17 in 10.0 mi WNW 8.1 mph - N/A   Overcast
6:53 PM 45.0 °F 41.2 °F 26.1 °F 48% 30.17 in 10.0 mi WNW 6.9 mph - N/A   Overcast
7:53 PM 44.1 °F 40.8 °F 26.1 °F 49% 30.18 in 10.0 mi WNW 5.8 mph - N/A   Overcast
8:53 PM 43.0 °F 39.5 °F 27.0 °F 53% 30.19 in 10.0 mi WNW 5.8 mph - N/A   Overcast
9:53 PM 43.0 °F 37.2 °F 25.0 °F 49% 30.18 in 10.0 mi NW 10.4 mph - N/A   Overcast
10:53 PM 42.1 °F 37.1 °F 26.1 °F 53% 30.18 in 10.0 mi WNW 8.1 mph - N/A   Mostly Cloudy
11:53 PM 41.0 °F 37.1 °F 27.0 °F 57% 30.18 in 10.0 mi WNW 5.8 mph - N/A   Overcast